[[{"header":{"parameterUnit":"m.s-1","parameterCategory":1,"la1":30.2991,"la2":30.254,"lo1":-89.0895,"lo2":-89.0444,"dy":0.0017,"dx":0.0017,"nx":28,"ny":28,"refTime":"2023-11-08T03:00:00:Z","depth":0,"parameterNumber":2,"parameterNumberName":"U-component_of_WINDS"},"data":[0,0,0,0,0,0,0,0,0,0,0,0,0,0,0,0,0,0,0,0,0,0,0,0,0,0,0,0,0,0,0,0,0,0,0,0,0,0,0,0,0,0,0,0,0,0,0,0,0,0,0,0,0,0,0,0,0,0,0.2734,0.2734,0,0.2777,0.2778,0.2778,0.2792,0.2792,0.2792,0.2792,0.2833,0.2834,0.2836,0,0,0,0,0,0,0,0,0,0,0,0,0,0.2659,0.266,0.2734,0.2734,0.2735,0.2777,0.2778,0.2778,0.2792,0.2792,0.2792,0.2792,0.2833,0.2834,0.2836,0,0,0,0,0,0,0,0,0,0,0,0,0,0.2696,0.266,0.2733,0.2747,0.2749,0.2777,0.2778,0.2779,0.2793,0.2792,0.2792,0.2792,0.2832,0.2834,0.2836,0.2853,0,0,0.2842,0.2843,0,0,0,0,0,0,0,0,0.2694,0.2698,0.2744,0.2746,0.2748,0.2779,0.2767,0.2804,0.2793,0.2776,0.2792,0.2792,0.2815,0.2818,0.2827,0.2855,0.2857,0.2842,0.2843,0.2844,0.2844,0,0,0,0,0,0,0,0.2691,0.2697,0.2751,0.2745,0.2747,0.275,0.2755,0.2774,0.2796,0.2777,0.2778,0.2784,0.2816,0.2825,0.2828,0.2858,0.2842,0.2844,0.2845,0.2845,0.2902,0.2902,0,0,0,0,0,0,0.2687,0.2694,0.2749,0.2752,0.272,0.2751,0.2757,0.2769,0.2796,0.28,0.2784,0.2784,0.2822,0.2826,0.283,0.2852,0.2844,0.2846,0.2847,0.2902,0.2902,0.2903,0,0,0,0,0,0,0.2685,0.2691,0.2748,0.2724,0.2731,0.2753,0.2767,0.277,0.278,0.2801,0.2805,0.2789,0.2822,0.2827,0.2848,0.2854,0.2847,0.2848,0.2901,0.2902,0.2902,0.2897,0,0,0,0,0,0,0.2683,0.2691,0.2698,0.2724,0.2732,0.2766,0.2767,0.2771,0.2783,0.2784,0.2807,0.2811,0.2822,0.2845,0.285,0.2856,0.285,0.2901,0.2902,0.2902,0.2897,0.2897,0.2898,0,0,0,0,0,0.268,0.2694,0.2699,0.2705,0.2742,0.2766,0.2771,0.2785,0.2784,0.2791,0.2805,0.281,0.2852,0.2847,0.2852,0.286,0.2901,0.2901,0.2902,0.2897,0.2897,0.2898,0,0,0,0,0,0,0.2668,0.2698,0.2703,0.2726,0.2744,0.2769,0.2778,0.2785,0.2802,0.2802,0.2817,0.2822,0.2842,0.2853,0.2846,0.2878,0.2877,0.2878,0.287,0.2871,0.2872,0.2869,0.2851,0,0,0,0,0,0.2668,0.2686,0.2711,0.2728,0.2737,0.2756,0.2767,0.2776,0.2795,0.2802,0.2817,0.2833,0.2851,0.2861,0.2878,0.2898,0.2903,0.2906,0.2906,0.2907,0.2908,0.292,0.2921,0.2905,0.2905,0.2905,0,0,0.2668,0.2687,0.2697,0.2726,0.2741,0.2759,0.2762,0.278,0.2793,0.2804,0.2825,0.2837,0.2856,0.2877,0.2886,0.2886,0.2914,0.2908,0.2908,0.2909,0.2921,0.2922,0.2924,0.2906,0.2906,0.2906,0,0,0.2677,0.2693,0.271,0.2725,0.2748,0.276,0.2764,0.2789,0.2797,0.2819,0.2827,0.2842,0.2871,0.2885,0.2895,0.291,0.2915,0.2915,0.2918,0.2929,0.293,0.2931,0.2937,0.2938,0.2916,0.2916,0.2916,0,0.2674,0.2702,0.2718,0.2736,0.2748,0.276,0.2777,0.279,0.2817,0.2825,0.2824,0.2861,0.2875,0.2899,0.2903,0.2911,0.2916,0.2912,0.2929,0.293,0.2931,0.2937,0.2939,0.2916,0.2916,0.2916,0.2916,0,0.2697,0.2716,0.2727,0.2754,0.2768,0.2785,0.2802,0.2814,0.2822,0.2834,0.2856,0.2873,0.2893,0.29,0.2907,0.2925,0.2924,0.2926,0.2925,0.2933,0.2938,0.294,0.2916,0.2916,0.2916,0.2916,0,0,0.27,0.2736,0.274,0.2752,0.2778,0.2793,0.281,0.2832,0.2842,0.2859,0.2874,0.2898,0.29,0.2912,0.2921,0.2931,0.2942,0.2932,0.2932,0.2933,0.2963,0.2961,0.2963,0.2945,0.2946,0.2946,0.2961,0,0.2713,0.2746,0.2761,0.2787,0.2805,0.2817,0.2832,0.2849,0.2861,0.2876,0.2889,0.2906,0.2908,0.2915,0.2925,0.2938,0.2948,0.2937,0.2959,0.2959,0.2954,0.2966,0.2965,0.2978,0.2963,0.2964,0.2964,0,0.2732,0.2752,0.2781,0.2805,0.2813,0.2827,0.2848,0.2863,0.2882,0.289,0.2904,0.2912,0.293,0.2928,0.2952,0.2945,0.2954,0.2962,0.2962,0.2965,0.2962,0.297,0.2983,0.2985,0.2967,0.2967,0.2967,0,0.2732,0.2765,0.2787,0.2797,0.2826,0.2835,0.2848,0.2867,0.2879,0.2897,0.2905,0.2923,0.2934,0.2948,0.2961,0.2958,0.2984,0.2983,0.2991,0.299,0.2996,0.2996,0.3011,0.3001,0.3001,0.3001,0.3001,0,0.2745,0.2762,0.2787,0.2801,0.282,0.2836,0.2854,0.2867,0.2884,0.2899,0.2909,0.2923,0.2939,0.2955,0.2965,0.2984,0.2988,0.2994,0.2997,0.2994,0.2993,0.3001,0.3,0.3002,0.3002,0.3002,0.3001,0,0.2748,0.2766,0.279,0.2816,0.2823,0.2836,0.2858,0.287,0.2883,0.2902,0.2907,0.2926,0.2945,0.296,0.2983,0.299,0.301,0.3013,0.3004,0.3006,0.3013,0.3012,0.3034,0.3038,0.3025,0.3025,0.3025,0,0.2756,0.277,0.2797,0.2809,0.2822,0.284,0.2853,0.2869,0.2882,0.2905,0.2915,0.2935,0.2952,0.2981,0.2996,0.3014,0.3018,0.3024,0.302,0.3017,0.3018,0.3017,0.3019,0.3024,0.3025,0.3025,0.3025,0,0.2768,0.2776,0.2795,0.2817,0.2832,0.285,0.2868,0.2876,0.2895,0.2909,0.2929,0.2942,0.2968,0.2987,0.3007,0.3018,0.3024,0.3026,0.3029,0.3026,0.3021,0.3024,0.3006,0.3025,0.3025,0.3025,0.3025,0.3025,0.2773,0.2786,0.2808,0.2829,0.2845,0.2861,0.2875,0.2889,0.2907,0.293,0.2938,0.2959,0.2977,0.3005,0.3016,0.3032,0.3032,0.3036,0.3037,0.3038,0.3038,0.3018,0.3035,0.3035,0.3035,0.3035,0.3035,0,0.2786,0.2801,0.282,0.2846,0.2862,0.2868,0.2888,0.29,0.2919,0.2936,0.2953,0.2976,0.2995,0.3012,0.3032,0.3041,0.3044,0.3045,0.3045,0.3047,0.3037,0.3032,0.3042,0.3042,0.3042,0.3042,0.3042,0.3042,0.2794,0.2817,0.2828,0.2858,0.2872,0.2894,0.2905,0.292,0.2934,0.296,0.2976,0.2988,0.3005,0.3026,0.3043,0.3047,0.3054,0.3054,0.306,0.3049,0.3048,0.3047,0.3044,0.3056,0.3056,0.3069,0.3069,0.3069]},{"header":{"parameterUnit":"m.s-1","parameterCategory":1,"la1":30.2991,"la2":30.254,"lo1":-89.0895,"lo2":-89.0444,"dy":0.0017,"dx":0.0017,"nx":28,"ny":28,"refTime":"2023-11-08T03:00:00:Z","depth":0,"parameterNumber":3,"parameterNumberName":"V-component_of_WINDS"},"data":[0,0,0,0,0,0,0,0,0,0,0,0,0,0,0,0,0,0,0,0,0,0,0,0,0,0,0,0,0,0,0,0,0,0,0,0,0,0,0,0,0,0,0,0,0,0,0,0,0,0,0,0,0,0,0,0,0,0,2.9714,2.9713,0,2.9581,2.958,2.9578,2.9547,2.9548,2.9548,2.9549,2.9406,2.9401,2.9397,0,0,0,0,0,0,0,0,0,0,0,0,0,2.9936,2.9932,2.9715,2.9713,2.9711,2.9581,2.958,2.9578,2.9546,2.9548,2.9549,2.955,2.9408,2.9402,2.9396,0,0,0,0,0,0,0,0,0,0,0,0,0,2.9825,2.9931,2.9715,2.968,2.9676,2.9582,2.958,2.9577,2.9546,2.9548,2.9549,2.955,2.9409,2.9403,2.9396,2.9325,0,0,2.9374,2.9371,0,0,0,0,0,0,0,0,2.9831,2.9817,2.9687,2.9682,2.9677,2.9582,2.9605,2.9492,2.9546,2.9595,2.9549,2.9551,2.9463,2.9452,2.9423,2.9318,2.9312,2.9374,2.9369,2.9366,2.9364,0,0,0,0,0,0,0,2.9839,2.9822,2.9662,2.9685,2.9679,2.9669,2.9655,2.9584,2.9523,2.9591,2.9588,2.9573,2.9461,2.943,2.942,2.931,2.9374,2.9368,2.9363,2.9361,2.9141,2.914,0,0,0,0,0,0,2.9854,2.9829,2.9666,2.9658,2.976,2.9664,2.9648,2.9611,2.9523,2.9512,2.9572,2.9572,2.9442,2.9428,2.9415,2.9327,2.9366,2.936,2.9356,2.9143,2.9141,2.9139,0,0,0,0,0,0,2.9859,2.9839,2.9671,2.9743,2.972,2.9659,2.9617,2.9608,2.9578,2.951,2.9498,2.9553,2.9442,2.9425,2.9348,2.9322,2.9357,2.935,2.9145,2.9142,2.914,2.9151,0,0,0,0,0,0,2.9865,2.9841,2.9815,2.9742,2.9717,2.9609,2.9616,2.9604,2.9566,2.9565,2.9488,2.9477,2.9442,2.9359,2.9341,2.9313,2.9345,2.9147,2.9144,2.9141,2.9153,2.915,2.9147,0,0,0,0,0,2.9873,2.9822,2.9814,2.9794,2.9683,2.9607,2.9592,2.9555,2.9564,2.9537,2.9493,2.9479,2.9328,2.9351,2.9331,2.93,2.9148,2.9144,2.9141,2.9155,2.915,2.9147,0,0,0,0,0,0,2.9889,2.9811,2.9802,2.9726,2.9674,2.9602,2.9566,2.9552,2.9494,2.9495,2.9449,2.9432,2.9359,2.9322,2.9349,2.9228,2.9238,2.923,2.9255,2.9251,2.9248,2.9258,2.9339,0,0,0,0,0,2.9885,2.9832,2.9766,2.9705,2.9679,2.9627,2.9593,2.9569,2.9512,2.9489,2.944,2.9384,2.9324,2.9285,2.9226,2.9148,2.9131,2.9116,2.9113,2.9111,2.9105,2.9062,2.9055,2.9127,2.9127,2.9127,0,0,2.9873,2.9824,2.9793,2.9707,2.9664,2.9609,2.9609,2.955,2.9508,2.9479,2.9406,2.9368,2.9302,2.9225,2.9189,2.9192,2.9081,2.9106,2.9105,2.91,2.9058,2.9051,2.9045,2.9125,2.9125,2.9125,0,0,2.9825,2.9783,2.9728,2.9686,2.9622,2.9588,2.9575,2.9506,2.9481,2.9406,2.9385,2.9333,2.923,2.9185,2.9148,2.9085,2.907,2.9067,2.905,2.9009,2.9004,2.8998,2.8977,2.897,2.9061,2.9061,2.9061,0,2.9818,2.9737,2.9701,2.9645,2.9607,2.9582,2.9526,2.9486,2.9405,2.9379,2.9384,2.9256,2.921,2.9123,2.9108,2.9079,2.9062,2.9076,2.9008,2.9002,2.8997,2.8976,2.8968,2.9061,2.9061,2.9061,2.9061,0,2.9733,2.9676,2.964,2.9566,2.9524,2.9468,2.9423,2.9384,2.9365,2.933,2.9255,2.9199,2.9129,2.9106,2.9085,2.9016,2.9021,2.9017,2.9026,2.8991,2.897,2.8962,2.9061,2.9061,2.9061,2.9061,0,0,2.969,2.9599,2.9586,2.9553,2.9482,2.9437,2.9379,2.9313,2.9282,2.9227,2.9177,2.9092,2.909,2.9048,2.9021,2.8985,2.8941,2.8986,2.8984,2.8981,2.8863,2.8867,2.8858,2.8931,2.8929,2.8928,2.8869,0,2.9633,2.9533,2.95,2.9416,2.9364,2.934,2.929,2.924,2.9206,2.9156,2.9117,2.9058,2.9059,2.9034,2.8997,2.8954,2.8917,2.8958,2.8884,2.8881,2.8902,2.8847,2.885,2.8798,2.8861,2.8859,2.8858,0,2.9554,2.9502,2.9414,2.9351,2.9328,2.9284,2.9222,2.9174,2.9117,2.9095,2.905,2.9027,2.8965,2.8978,2.8892,2.8921,2.8889,2.8863,2.886,2.8852,2.8868,2.8838,2.878,2.8773,2.8845,2.8846,2.8847,0,2.9534,2.9441,2.9377,2.9349,2.9273,2.9243,2.921,2.9154,2.9118,2.9062,2.9038,2.8976,2.8941,2.8893,2.8853,2.8866,2.8771,2.8781,2.8751,2.8752,2.8732,2.8734,2.8668,2.871,2.871,2.871,2.871,0,2.9475,2.9422,2.9367,2.9327,2.9267,2.9229,2.917,2.9135,2.9086,2.9039,2.9013,2.8968,2.8918,2.8867,2.8835,2.8769,2.8753,2.8733,2.8726,2.8736,2.8739,2.8714,2.8717,2.8708,2.8708,2.8709,2.8709,0,2.9442,2.9403,2.9331,2.9267,2.925,2.9209,2.9153,2.9113,2.9079,2.9019,2.9002,2.8948,2.8886,2.8842,2.8762,2.874,2.867,2.8662,2.8691,2.8687,2.866,2.8664,2.8577,2.8564,2.8614,2.8613,2.8613,0,2.9407,2.9367,2.9299,2.9267,2.9235,2.9182,2.9146,2.9107,2.9069,2.9003,2.8971,2.8908,2.8856,2.8758,2.871,2.8649,2.8639,2.8613,2.863,2.8642,2.864,2.8644,2.864,2.8611,2.8611,2.861,2.861,0,2.9351,2.9334,2.9284,2.9227,2.9185,2.9137,2.9089,2.9064,2.9016,2.8975,2.8913,2.8873,2.8793,2.8731,2.8665,2.8629,2.8611,2.8606,2.8596,2.8606,2.8625,2.8616,2.8685,2.8608,2.8608,2.8608,2.8608,2.8608,2.9316,2.928,2.9228,2.9173,2.9133,2.909,2.905,2.9012,2.8961,2.8895,2.8874,2.881,2.8754,2.8665,2.8629,2.8577,2.8578,2.8563,2.856,2.8557,2.8558,2.8633,2.8565,2.8565,2.8565,2.8565,2.8565,0,2.9259,2.9225,2.9175,2.9111,2.9068,2.9058,2.9005,2.8969,2.8914,2.8865,2.8815,2.8744,2.8685,2.8633,2.8571,2.854,2.853,2.8525,2.8527,2.8519,2.856,2.8576,2.8534,2.8534,2.8534,2.8534,2.8534,2.8534,2.9225,2.9163,2.9141,2.906,2.9025,2.8965,2.8935,2.8895,2.8856,2.8779,2.8731,2.8699,2.8648,2.8583,2.8527,2.8513,2.8492,2.8489,2.8473,2.8512,2.8516,2.8519,2.8534,2.8484,2.8484,2.8437,2.8436,2.8436]}]]